Regional Weather Roundup
Issued by NWS Newport/Morehead, NC

Current Version | Previous Version | Graphics & Text | Print | Product List | Glossary Off
Versions: 1 2 3 4 5 6 7 8 9 10 11 12 13 14 15 16 17 18 19 20 21 22 23 24 25 26 27 28 29 30 31 32 33 34 35 36 37 38 39 40 41 42 43 44 45 46 47 48 49 50

000
ASUS42 KMHX 161714
RWRMHX
WEATHER ROUNDUP FOR EASTERN NORTH CAROLINA
NATIONAL WEATHER SERVICE NEWPORT/MOREHEAD CITY NC
1200 PM EST SAT DEC 16 2017

NOTE: "FAIR" INDICATES FEW OR NO CLOUDS BELOW 12,000 FEET
WITH NO SIGNIFICANT WEATHER AND/OR OBSTRUCTIONS TO VISIBILITY

NCZ015>017-031-032-045>047-102-103-161800-
NORTH COAST

CITY           SKY/WX    TMP DP  RH WIND       PRES   REMARKS
EDENTON        SUNNY     45  24  44 SW6       30.24F
ELIZABETH CITY SUNNY     44  21  40 NW3       30.23F
KITTY HAWK     SUNNY     43  22  42 CALM      30.20F
MANTEO         SUNNY     42  24  48 W7        30.22F

$$

NCZ045>047-081-094-103-104-161800-
CENTRAL COAST

CITY           SKY/WX    TMP DP  RH WIND       PRES   REMARKS
FRISCO         SUNNY     44  28  53 NW5       30.24F

$$

NCZ095-097-098-100-101-161800-
SOUTHERN COAST

CITY           SKY/WX    TMP DP  RH WIND       PRES   REMARKS
BEAUFORT       SUNNY     44  23  43 CALM      30.26F
CEDAR ISLAND   NOT AVBL
JACKSONVILLE   SUNNY     46  24  42 NW5       30.26F
PINEY ISLAND     N/A    N/A N/A N/A CALM      30.25F
WILMINGTON     SUNNY     49  23  36 VRB3      30.28F


$$

NCZ011>013-027>030-043-044-078>080-089-090>093-098-161800-
COASTAL PLAIN

CITY           SKY/WX    TMP DP  RH WIND       PRES   REMARKS
AHOSKIE        SUNNY     43  20  41 CALM      30.24S
CLINTON        SUNNY     45  25  44 CALM      30.28F
ELIZABETHTOWN  NOT AVBL
GOLDSBORO      SUNNY     47  23  38 W5        30.23F
GREENVILLE     SUNNY     45  23  42 NW5       30.26F
HAVELOCK       SUNNY     45  24  43 CALM      30.26F
KENANSVILLE    SUNNY     45  23  42 CALM      30.27F
KINSTON        SUNNY     46  21  36 N5        30.25F
NEW BERN       SUNNY     45  23  42 NW6       30.26F
RICHLANDS      SUNNY     46  24  42 VRB7      30.26F
ROCKY MOUNT    SUNNY     45  22  40 W8        30.25F
WASHINGTON     SUNNY     44  20  38 CALM      30.25F
WHITEVILLE     SUNNY     46  24  42 CALM      30.29F

$$

AMZ130-135-150-152-154-156-158-170-250-252-270-ANZ085-086-088-633-658-670-161800-
MARINE OBSERVATIONS

STATION/POSITION TIME  TEMP    WIND        PRES    WAVE   SWELL
                       AIR SEA DIR/SP/G            HT/PER HT/PER
                 (UTC) (F)     (DEG/KT/KT) (MB)    (FT/S) (FT/S)
CHESAPEAKE LIGHT NOT AVBL
64 E VA BEACH    1550   44 57  330/ 10/ 16 1024.2    5/ 7   5/ 7
DUCK             1648   42 52  360/  2/  6 1022.9
2 E DUCK         1630      54                N/A     3/ 7
OREGON INLET     1642   43 48  260/  5/  7 1023.5
13E OREGON INLT  1648      58                N/A     4/ 8   3/ 8
HATTERAS CG      1648   40 52  350/  5/  7 1024.0
DIAMOND BUOY     1650   45 72  330/  6/ 10 1024.4    4/ 8   3/ 8
CAPE LOOKOUT     1700          300/  5/  6 1025.1
BEAUFORT LAB     1648   42 50  330/  3/  6 1024.8
30 SE NEW RVR IN 1608   44 64  360/  8/ 14 1026.2
30 SE NEW RVR IN 1630      64                N/A     3/ 7
27 SE WRIGHTSVLE 1608   45 63  360/ 12/ 17 1026.3
5 SE WRIGHTSVLE  1608   43 56  360/  6/ 10 1026.4
225 S CAPE HAT   1550   64 74  340/ 12/ 16 1023.0    7/ 7   5/ 7
41 SE CHARLESTON 1650   53 72   30/ 10/ 14 1025.5    3/ 4   2/ 5

$$




USA.gov is the U.S. government's official web portal to all federal, state and local government web resources and services.